Weather History for Seminole, TX

Change the Weather History Date:

Monday, December 24, 2012

  Actual Average (KHOB) Record (KHOB)
Temperature  
Mean Temperature 44 °F -  
Max Temperature 59 °F 53 °F 77 °F (1955)
Min Temperature 30 °F 26 °F 6 °F (2004)
Degree Days  
Heating Degree Days 20    
Moisture  
Dew Point 13 °F    
Average Humidity 29    
Maximum Humidity 41    
Minimum Humidity 17    
Precipitation  
Precipitation 0.00 in - - ()
Sea Level Pressure  
Sea Level Pressure 29.87 in    
Wind  
Wind Speed 6 mph (South)    
Max Wind Speed 10 mph    
Max Gust Speed -    
Visibility 10 miles    
Events      
Averages and records for this station are not official NWS values.
T = Trace of Precipitation, MM = Missing Value Source: NWS Daily Summary

Daily Weather History Graph

Daily Weather History Graph

Search for Another Location

Airport:

Trip Planner

Search our weather history database for the weather conditions in past years. The results will help you decide how hot, cold, wet, or windy it might be!

Date:

Astronomy

Dec. 24, 2012 Rise Set
Actual Time 7:50 AM CST 5:50 PM CST
Civil Twilight 7:23 AM CST 6:17 PM CST
Nautical Twilight 6:52 AM CST 6:48 PM CST
Astronomical Twilight 6:22 AM CST 7:18 PM CST
Moon 3:15 PM CST (12/24) 4:35 AM CST (12/24)
Length of Visible Light 10h 54m
Length of Day
10h 00m
Waxing Gibbous, 88% of the Moon is Illuminated
Dec 24
Waxing Gibbous
Dec 28
Full
Jan 4
Last Quarter
Jan 11
New
Jan 18
First Quarter

Hourly Weather History & Observations

Time (CST) Temp. Windchill Dew Point Humidity Pressure Visibility Wind Dir Wind Speed Gust Speed Precip Events Conditions
12:15 AM 37.4 °F 32.8 °F 10.8 °F 33% 30.01 in 10.0 mi West 5.8 mph - N/A   Clear
12:35 AM 37.6 °F 33.1 °F 9.3 °F 31% 30.00 in 10.0 mi WSW 5.8 mph - N/A   Clear
12:55 AM 36.9 °F 32.2 °F 9.0 °F 32% 30.00 in 10.0 mi West 5.8 mph - N/A   Clear
1:15 AM 36.3 °F 29.5 °F 9.0 °F 32% 30.00 in 10.0 mi West 9.2 mph - N/A   Clear
1:35 AM 37.6 °F 33.1 °F 8.4 °F 30% 29.99 in 10.0 mi West 5.8 mph - N/A   Clear
1:55 AM 36.1 °F 28.7 °F 8.6 °F 32% 30.00 in 10.0 mi West 10.4 mph - N/A   Clear
2:15 AM 37.4 °F 30.8 °F 8.2 °F 30% 30.00 in 10.0 mi NW 9.2 mph - N/A   Clear
2:35 AM 37.2 °F 31.2 °F 8.6 °F 31% 30.00 in 10.0 mi NNW 8.1 mph - N/A   Clear
2:55 AM 35.4 °F 29.0 °F 8.6 °F 33% 30.00 in 10.0 mi North 8.1 mph - N/A   Clear
3:15 AM 34.5 °F 28.6 °F 8.2 °F 33% 29.99 in 10.0 mi North 6.9 mph - N/A   Clear
3:35 AM 34.3 °F 27.0 °F 8.1 °F 33% 29.99 in 10.0 mi North 9.2 mph - N/A   Clear
3:55 AM 33.4 °F 28.1 °F 8.2 °F 35% 30.00 in 10.0 mi North 5.8 mph - N/A   Clear
4:15 AM 34.3 °F - 8.1 °F 33% 29.99 in 10.0 mi Calm Calm - N/A   Clear
4:35 AM 36.0 °F - 7.0 °F 30% 29.99 in 10.0 mi Calm Calm - N/A   Clear
4:55 AM 33.6 °F - 6.8 °F 33% 29.98 in 10.0 mi Calm Calm - N/A   Clear
5:15 AM 32.4 °F 26.0 °F 7.3 °F 35% 29.97 in 10.0 mi NNW 6.9 mph - N/A   Clear
5:35 AM 33.1 °F 26.1 °F 7.7 °F 35% 29.97 in 10.0 mi North 8.1 mph - N/A   Clear
5:55 AM 33.6 °F 27.5 °F 8.1 °F 34% 29.98 in 10.0 mi NNW 6.9 mph - N/A   Clear
6:15 AM 31.3 °F 26.6 °F 7.7 °F 37% 29.98 in 10.0 mi NW 4.6 mph - N/A   Clear
6:35 AM 30.2 °F 25.4 °F 7.9 °F 39% 29.97 in 10.0 mi North 4.6 mph - N/A   Clear
6:55 AM 30.2 °F - 8.2 °F 40% 29.97 in 10.0 mi Calm Calm - N/A   Clear
7:15 AM 30.6 °F 25.8 °F 8.4 °F 39% 29.97 in 10.0 mi NNW 4.6 mph - N/A   Clear
7:35 AM 30.0 °F 25.2 °F 8.8 °F 41% 29.97 in 10.0 mi North 4.6 mph - N/A   Clear
7:55 AM 30.4 °F 26.9 °F 9.1 °F 41% 29.96 in 10.0 mi NE 3.5 mph - N/A   Clear
8:15 AM 32.5 °F - 8.6 °F 37% 29.96 in 10.0 mi Calm Calm - N/A   Clear
8:35 AM 32.7 °F 29.6 °F 9.1 °F 37% 29.98 in 10.0 mi NNW 3.5 mph - N/A   Clear
8:55 AM 34.9 °F 32.0 °F 9.7 °F 35% 29.97 in 10.0 mi ENE 3.5 mph - N/A   Clear
9:15 AM 36.0 °F 29.6 °F 9.5 °F 33% 29.96 in 10.0 mi SE 8.1 mph - N/A   Clear
9:35 AM 37.6 °F 32.3 °F 9.9 °F 32% 29.97 in 10.0 mi SE 6.9 mph - N/A   Clear
9:55 AM 40.6 °F 36.7 °F 10.9 °F 30% 29.98 in 10.0 mi SE 5.8 mph - N/A   Clear
10:15 AM 42.8 °F 37.5 °F 11.3 °F 28% 29.98 in 10.0 mi SSE 9.2 mph - N/A   Clear
10:35 AM 44.2 °F 40.3 °F 11.3 °F 26% 29.99 in 10.0 mi SSE 6.9 mph - N/A   Clear
10:55 AM 46.0 °F 42.5 °F 11.8 °F 25% 29.98 in 10.0 mi SE 6.9 mph - N/A   Clear
11:15 AM 47.7 °F - 12.0 °F 24% 29.96 in 10.0 mi SE 10.4 mph - N/A   Clear
11:35 AM 48.7 °F - 11.3 °F 22% 29.95 in 10.0 mi SE 6.9 mph - N/A   Clear
11:55 AM 50.2 °F - 11.7 °F 21% 29.93 in 10.0 mi ESE 8.1 mph - N/A   Clear
12:15 PM 50.7 °F - 11.3 °F 21% 29.93 in 10.0 mi ESE 4.6 mph - N/A   Clear
12:35 PM 51.4 °F - 11.3 °F 20% 29.91 in 10.0 mi SSE 3.5 mph - N/A   Clear
12:55 PM 52.0 °F - 11.3 °F 20% 29.89 in 10.0 mi SSE 4.6 mph - N/A   Clear
1:15 PM 52.5 °F - 11.5 °F 19% 29.88 in 10.0 mi SE 5.8 mph - N/A   Clear
1:35 PM 53.4 °F - 11.5 °F 19% 29.85 in 10.0 mi SE 5.8 mph - N/A   Clear
1:55 PM 54.1 °F - 11.5 °F 18% 29.84 in 10.0 mi SE 5.8 mph - N/A   Clear
2:15 PM 55.9 °F - 11.8 °F 17% 29.82 in 10.0 mi SSE 6.9 mph - N/A   Clear
2:35 PM 56.5 °F - 12.0 °F 17% 29.81 in 10.0 mi SE 8.1 mph - N/A   Clear
2:55 PM 56.8 °F - 12.2 °F 17% 29.80 in 10.0 mi SSE 5.8 mph - N/A   Clear
3:15 PM 57.6 °F - 12.2 °F 17% 29.79 in 10.0 mi SSE 6.9 mph - N/A   Clear
3:35 PM 58.1 °F - 12.7 °F 17% 29.79 in 10.0 mi SE 5.8 mph - N/A   Clear
3:55 PM 58.3 °F - 13.3 °F 17% 29.78 in 10.0 mi Calm Calm - N/A   Clear
4:15 PM 59.0 °F - 13.8 °F 17% 29.77 in 10.0 mi Calm Calm - N/A   Clear
4:35 PM 59.4 °F - 15.6 °F 18% 29.77 in 10.0 mi Calm Calm - N/A   Clear
4:55 PM 59.7 °F - 18.1 °F 20% 29.76 in 10.0 mi SSW 8.1 mph - N/A   Clear
5:15 PM 59.4 °F - 19.4 °F 21% 29.74 in 10.0 mi South 4.6 mph - N/A   Clear
5:35 PM 58.6 °F - 19.9 °F 22% 29.73 in 10.0 mi SSW 5.8 mph - N/A   Clear
5:55 PM 57.7 °F - 19.9 °F 23% 29.73 in 10.0 mi Calm Calm - N/A   Clear
6:15 PM 56.5 °F - 20.3 °F 24% 29.73 in 10.0 mi Calm Calm - N/A   Clear
6:35 PM 55.4 °F - 20.7 °F 26% 29.72 in 10.0 mi SSE 3.5 mph - N/A   Clear
6:55 PM 54.0 °F - 20.3 °F 27% 29.72 in 10.0 mi South 3.5 mph - N/A   Clear
7:15 PM 52.3 °F - 20.3 °F 28% 29.71 in 10.0 mi South 3.5 mph - N/A   Clear
7:35 PM 51.3 °F - 20.7 °F 30% 29.70 in 10.0 mi South 6.9 mph - N/A   Clear
7:55 PM 50.9 °F - 21.2 °F 31% 29.70 in 10.0 mi South 5.8 mph - N/A   Clear
8:15 PM 50.9 °F - 20.8 °F 31% 29.70 in 10.0 mi SSW 5.8 mph - N/A   Clear
8:35 PM 49.6 °F - 20.1 °F 31% 29.70 in 10.0 mi South 4.6 mph - N/A   Clear
8:55 PM 48.0 °F - 20.5 °F 34% 29.69 in 10.0 mi South 3.5 mph - N/A   Clear
9:15 PM 46.4 °F - 19.8 °F 35% 29.69 in 10.0 mi Calm Calm - N/A   Clear
9:35 PM 46.2 °F - 19.2 °F 34% 29.69 in 10.0 mi Calm Calm - N/A   Clear
9:55 PM 47.8 °F - 18.0 °F 31% 29.68 in 10.0 mi SSW 5.8 mph - N/A   Clear
10:15 PM 46.2 °F 43.3 °F 16.7 °F 31% 29.68 in 10.0 mi SW 5.8 mph - N/A   Clear
10:35 PM 45.9 °F 44.6 °F 16.3 °F 31% 29.68 in 10.0 mi WSW 3.5 mph - N/A   Clear
10:55 PM 45.7 °F 43.4 °F 16.2 °F 31% 29.68 in 10.0 mi WSW 4.6 mph - N/A   Clear
11:15 PM 43.2 °F 39.7 °F 16.0 °F 33% 29.68 in 10.0 mi WSW 5.8 mph - N/A   Clear
11:35 PM 42.1 °F 38.4 °F 16.2 °F 35% 29.66 in 10.0 mi WSW 5.8 mph - N/A   Clear
11:55 PM 41.0 °F 36.4 °F 16.2 °F 37% 29.65 in 10.0 mi SW 6.9 mph - N/A   Clear